Voltar ao catálogo

OPS 4682 DEB

AtivoPO
NORAD 27545·DEBRIS·🇺🇸 United States

Lançado Apr 3, 1965 de Vandenberg Space Force Base

Loading…

Próximas Passagens (próximas 24 horas)

TLE

AtualizadoSource: Space-Track

Época: Sep 12, 2026, 07:22 UTC

1 27545U 65027BH  26255.30703319  .00000911  00000-0  32064-2 0  9997
2 27545  90.2522   9.2902 0019292  15.2868  11.7827 12.95338581166532

Acompanhe OPS 4682 DEB em tempo real com AllMySat

Download on the App Store